GFSWCAN_prec_precacc_102.txt.gz
Total_Precipitation_Accumulation
0.86 0.80 0.73 0.68 0.52 0.55 0.70 0.78 0.66 0.69 0.66 0.57 0.68 0.72 0.65 0.73 1.12 1.87 2.72 1.39 2.08 2.20 0.57 0.25 0.27 0.26 0.14 0.22 0.44 0.36 0.64 0.44 0.46 0.46 0.26 0.17 0.27 0.39 0.42 0.35 0.27 0.26 0.40 0.33 0.35 0.42 0.20 0.13 0.27 0.64 0.97 1.00 1.03 1.16
1.06 0.82 0.78 0.69 0.54 0.60 0.70 0.72 0.60 0.65 0.62 0.55 0.53 0.59 0.66 0.73 1.18 1.61 2.41 1.46 1.43 2.16 1.24 0.36 0.24 0.20 0.14 0.15 0.45 0.59 0.54 0.64 0.70 0.62 0.40 0.33 0.35 0.29 0.39 0.50 0.27 0.34 0.28 0.31 0.30 0.36 0.39 0.19 0.32 0.61 0.71 0.77 0.78 0.83
1.29 0.90 0.79 0.67 0.60 0.69 0.71 0.63 0.52 0.54 0.57 0.57 0.56 0.52 0.61 0.82 1.19 1.67 1.78 1.42 2.22 3.10 1.51 0.69 0.32 0.14 0.17 0.08 0.20 0.48 0.40 0.45 0.56 0.53 0.62 0.43 0.49 0.36 0.55 0.47 0.47 0.60 0.27 0.45 0.56 0.72 0.29 0.19 0.25 0.32 0.41 0.58 0.51 0.50
1.19 0.91 0.61 0.57 0.56 0.62 0.57 0.47 0.44 0.51 0.54 0.59 0.56 0.69 0.72 1.05 1.20 1.72 1.50 1.72 2.26 2.17 1.60 0.76 0.48 0.28 0.18 0.22 0.18 0.22 0.25 0.36 0.45 0.57 0.63 0.62 0.63 0.54 0.86 0.53 0.51 0.91 0.48 0.56 0.84 1.48 0.73 0.61 0.71 0.66 0.47 0.47 0.39 0.41
0.87 0.68 0.54 0.49 0.49 0.54 0.54 0.55 0.54 0.54 0.63 0.62 0.61 0.79 1.18 1.26 1.55 2.00 1.46 1.66 1.93 2.00 1.68 0.90 0.42 0.33 0.22 0.18 0.17 0.20 0.25 0.36 0.49 0.63 0.55 0.38 0.38 0.64 1.06 0.58 0.58 0.69 0.91 0.87 1.02 1.27 1.08 0.91 0.67 0.51 0.36 0.32 0.26 0.18
0.73 0.62 0.51 0.49 0.45 0.46 0.42 0.50 0.59 0.66 0.57 0.65 0.76 0.94 1.17 1.46 2.46 3.44 4.27 2.76 1.58 1.62 1.88 1.42 0.55 0.24 0.28 0.28 0.33 0.23 0.32 0.46 0.56 0.50 0.40 0.42 0.38 0.85 1.24 0.78 0.71 0.79 1.08 0.95 0.88 0.90 0.72 0.60 0.42 0.31 0.23 0.23 0.18 0.12
0.72 0.64 0.50 0.44 0.38 0.34 0.37 0.43 0.47 0.54 0.75 0.82 0.88 0.86 1.24 2.19 2.54 1.98 1.88 1.56 0.97 1.38 1.96 1.44 0.98 0.46 0.38 0.51 0.92 0.70 0.61 0.73 0.82 0.69 0.42 0.30 0.43 0.82 1.11 0.94 0.75 0.78 0.84 0.67 0.55 0.42 0.38 0.38 0.27 0.18 0.13 0.13 0.10 0.07
0.66 0.51 0.42 0.38 0.36 0.36 0.39 0.46 0.51 0.60 0.74 0.74 0.88 1.15 1.85 2.50 2.14 1.71 0.83 0.69 0.69 1.23 1.35 1.39 1.28 1.18 0.69 0.72 1.03 1.04 0.91 1.04 1.16 0.90 0.52 0.35 0.65 0.92 1.22 0.76 0.44 0.37 0.40 0.28 0.20 0.10 0.11 0.09 0.07 0.05 0.05 0.07 0.12 0.15
0.52 0.42 0.37 0.36 0.41 0.49 0.54 0.51 0.55 0.69 0.82 1.18 1.83 2.79 4.22 3.74 2.83 1.65 0.95 0.98 0.99 1.21 1.13 0.73 1.11 1.59 1.15 0.83 1.08 1.05 1.08 1.20 0.73 0.67 0.63 0.67 0.60 0.97 1.00 0.42 0.31 0.18 0.15 0.14 0.06 0.01 0.00 0.00 0.01 0.02 0.03 0.04 0.08 0.17
0.45 0.41 0.42 0.43 0.47 0.47 0.50 0.57 0.74 1.00 1.46 2.20 2.92 3.58 4.30 2.66 1.71 1.86 3.04 2.87 2.12 1.22 0.72 0.54 0.74 1.22 1.44 1.24 1.02 1.30 1.08 0.88 0.69 0.49 0.51 0.73 0.74 0.39 0.20 0.19 0.14 0.10 0.11 0.07 0.04 0.03 0.03 0.04 0.07 0.10 0.15 0.15 0.16 0.17
0.50 0.45 0.47 0.46 0.52 0.68 0.83 0.87 1.00 1.34 1.82 2.36 2.69 2.95 2.59 2.12 2.10 2.44 2.29 1.89 1.24 0.69 0.31 0.25 0.57 1.13 1.34 1.37 1.09 0.93 1.40 1.18 0.66 0.54 0.60 0.69 0.53 0.32 0.16 0.10 0.06 0.07 0.05 0.05 0.05 0.07 0.08 0.12 0.18 0.22 0.22 0.20 0.16 0.14
0.42 0.41 0.43 0.48 0.58 0.79 0.86 0.94 0.95 1.27 1.54 1.37 1.63 2.11 2.79 2.61 2.05 1.54 1.17 0.95 0.53 0.40 0.36 0.25 0.37 0.56 1.25 1.48 1.20 0.79 1.02 1.24 1.41 0.82 0.81 0.75 0.45 0.19 0.10 0.10 0.10 0.11 0.10 0.10 0.12 0.17 0.23 0.26 0.27 0.22 0.17 0.16 0.19 0.22
0.41 0.49 0.62 0.69 0.65 0.74 0.93 1.05 1.18 1.23 1.38 1.62 1.40 1.82 1.84 1.56 1.40 1.12 0.89 0.66 0.54 0.26 0.28 0.33 0.41 0.59 0.94 1.36 1.35 1.00 1.17 1.14 1.12 1.31 0.76 0.57 0.31 0.23 0.32 0.36 0.37 0.31 0.30 0.32 0.35 0.33 0.27 0.25 0.24 0.25 0.33 0.45 0.46 0.54
0.42 0.51 0.48 0.57 0.77 1.01 1.18 1.34 1.65 1.81 1.79 1.52 1.22 1.23 1.04 1.01 0.72 0.70 0.72 0.69 0.48 0.35 0.31 0.32 0.51 0.84 0.81 0.99 1.41 1.31 1.39 1.04 1.03 0.83 0.58 0.54 0.56 0.70 0.61 0.48 0.42 0.49 0.50 0.52 0.59 0.59 0.59 0.61 0.74 0.83 0.88 0.95 0.79 0.86
0.46 0.37 0.51 0.86 0.99 1.01 1.06 1.24 1.56 1.29 1.24 1.08 0.71 0.60 0.63 0.79 0.62 0.69 0.66 0.51 0.51 0.60 0.67 0.76 1.05 0.97 0.74 1.04 0.99 0.95 0.87 0.70 0.61 0.67 0.77 0.91 0.87 0.82 0.67 0.61 0.61 0.65 0.67 0.68 0.74 0.71 0.80 0.81 0.66 0.78 0.85 0.78 0.62 0.63
0.24 0.45 0.64 0.64 0.52 0.68 0.92 1.45 1.58 0.86 0.77 0.64 0.73 0.76 0.67 0.72 0.77 0.75 0.68 0.62 0.72 0.91 0.87 0.89 0.97 0.94 0.97 0.79 0.61 0.57 0.56 0.67 0.87 0.75 0.90 0.93 0.84 0.87 0.85 0.79 0.81 0.84 0.79 0.79 0.81 0.74 0.68 0.61 0.52 0.56 0.54 0.50 0.51 0.41
0.26 0.43 0.65 0.52 0.59 0.74 1.09 1.35 1.14 1.01 0.73 0.63 0.93 1.02 0.91 0.78 0.89 0.95 0.92 0.84 0.79 0.68 0.60 0.56 0.58 0.63 0.65 0.45 0.53 0.55 0.78 0.85 0.86 0.91 0.92 0.92 0.94 0.99 1.00 0.90 0.83 0.70 0.65 0.67 0.66 0.63 0.61 0.61 0.44 0.28 0.32 0.41 0.28 0.23
0.32 0.42 0.49 0.48 0.59 0.85 0.94 0.79 0.74 0.53 0.47 0.73 0.77 1.02 0.72 0.83 0.83 0.79 0.81 0.66 0.54 0.44 0.43 0.54 0.47 0.48 0.65 0.79 0.83 0.84 0.94 1.01 1.03 1.00 0.97 1.00 0.95 0.88 0.79 0.67 0.65 0.55 0.51 0.53 0.47 0.44 0.42 0.36 0.26 0.28 0.23 0.20 0.12 0.11
0.63 0.54 0.73 0.79 0.56 0.60 0.70 0.52 0.27 0.34 0.59 0.64 0.68 0.56 0.46 0.59 0.61 0.58 0.42 0.28 0.18 0.15 0.18 0.24 0.34 0.58 0.80 0.88 0.90 0.93 0.92 0.84 0.87 0.85 0.77 0.77 0.76 0.72 0.66 0.56 0.51 0.51 0.43 0.42 0.30 0.25 0.23 0.18 0.18 0.16 0.13 0.09 0.12 0.16
0.89 0.84 0.86 0.66 0.31 0.33 0.25 0.21 0.03 0.13 0.31 0.38 0.35 0.18 0.18 0.30 0.25 0.16 0.10 0.06 0.07 0.06 0.12 0.28 0.63 0.78 0.70 0.75 0.68 0.69 0.69 0.63 0.50 0.39 0.48 0.55 0.58 0.46 0.51 0.44 0.42 0.36 0.25 0.22 0.18 0.16 0.13 0.13 0.15 0.15 0.14 0.13 0.14 0.15
0.77 0.88 0.72 0.36 0.27 0.23 0.17 0.09 0.06 0.06 0.12 0.18 0.13 0.04 0.09 0.06 0.05 0.05 0.03 0.01 0.05 0.13 0.41 0.63 0.63 0.68 0.48 0.46 0.40 0.36 0.43 0.40 0.40 0.30 0.35 0.45 0.48 0.31 0.32 0.35 0.31 0.27 0.23 0.24 0.22 0.23 0.18 0.19 0.18 0.14 0.13 0.10 0.09 0.09
0.52 0.46 0.54 0.26 0.18 0.17 0.10 0.04 0.05 0.03 0.04 0.08 0.08 0.04 0.05 0.08 0.05 0.04 0.02 0.07 0.33 0.57 0.58 0.45 0.39 0.31 0.21 0.25 0.23 0.17 0.23 0.19 0.24 0.35 0.44 0.36 0.38 0.36 0.38 0.42 0.30 0.29 0.28 0.28 0.24 0.22 0.18 0.14 0.10 0.07 0.06 0.06 0.04 0.04
0.28 0.26 0.28 0.16 0.17 0.16 0.14 0.09 0.06 0.03 0.02 0.06 0.03 0.03 0.03 0.03 0.03 0.02 0.06 0.19 0.52 0.61 0.44 0.23 0.18 0.15 0.18 0.28 0.19 0.16 0.14 0.10 0.12 0.18 0.23 0.26 0.28 0.31 0.29 0.30 0.27 0.25 0.21 0.19 0.14 0.11 0.09 0.05 0.01 0.01 0.02 0.03 0.04 0.04
0.23 0.32 0.46 0.26 0.12 0.17 0.12 0.11 0.06 0.06 0.03 0.03 0.02 0.05 0.06 0.04 0.02 0.03 0.10 0.23 0.46 0.34 0.20 0.24 0.18 0.15 0.15 0.15 0.17 0.21 0.26 0.20 0.21 0.23 0.25 0.19 0.18 0.20 0.14 0.12 0.09 0.07 0.06 0.04 0.02 0.01 0.01 0.02 0.02 0.04 0.03 0.02 0.02 0.03
0.41 0.31 0.35 0.27 0.13 0.09 0.06 0.05 0.07 0.05 0.04 0.02 0.04 0.07 0.05 0.02 0.05 0.06 0.09 0.31 0.30 0.29 0.28 0.26 0.20 0.18 0.18 0.21 0.22 0.21 0.17 0.12 0.10 0.11 0.14 0.08 0.08 0.06 0.03 0.01 0.01 0.01 0.00 0.02 0.03 0.03 0.03 0.03 0.02 0.02 0.02 0.03 0.05 0.07
0.51 0.27 0.17 0.15 0.08 0.07 0.05 0.03 0.03 0.03 0.03 0.08 0.12 0.08 0.06 0.08 0.08 0.15 0.24 0.36 0.30 0.31 0.34 0.34 0.27 0.19 0.17 0.15 0.14 0.12 0.08 0.06 0.03 0.03 0.04 0.01 0.01 0.01 0.02 0.01 0.02 0.03 0.01 0.03 0.06 0.05 0.04 0.02 0.02 0.03 0.04 0.05 0.06 0.09
0.27 0.23 0.10 0.09 0.11 0.14 0.20 0.18 0.16 0.16 0.15 0.16 0.14 0.11 0.16 0.19 0.17 0.33 0.44 0.41 0.38 0.38 0.29 0.22 0.14 0.10 0.12 0.11 0.09 0.07 0.03 0.01 0.01 0.01 0.02 0.02 0.02 0.01 0.01 0.03 0.05 0.05 0.02 0.02 0.03 0.04 0.06 0.06 0.05 0.04 0.05 0.06 0.09 0.12
0.11 0.09 0.11 0.13 0.19 0.23 0.22 0.20 0.23 0.28 0.29 0.23 0.17 0.16 0.18 0.16 0.30 0.47 0.47 0.47 0.34 0.21 0.14 0.12 0.10 0.05 0.04 0.05 0.07 0.05 0.03 0.01 0.01 0.01 0.02 0.05 0.02 0.00 0.01 0.02 0.02 0.02 0.01 0.02 0.02 0.03 0.05 0.08 0.08 0.08 0.08 0.09 0.09 0.12
0.09 0.11 0.12 0.13 0.07 0.07 0.14 0.18 0.20 0.22 0.21 0.17 0.13 0.14 0.17 0.26 0.42 0.42 0.43 0.36 0.28 0.15 0.13 0.14 0.21 0.08 0.05 0.03 0.03 0.01 0.00 0.01 0.00 0.00 0.01 0.03 0.06 0.05 0.02 0.02 0.02 0.01 0.02 0.02 0.02 0.03 0.07 0.11 0.12 0.13 0.11 0.11 0.12 0.13
0.03 0.04 0.04 0.03 0.07 0.13 0.22 0.16 0.19 0.16 0.08 0.06 0.07 0.11 0.17 0.44 0.67 0.45 0.32 0.28 0.23 0.19 0.15 0.12 0.12 0.06 0.05 0.05 0.06 0.08 0.07 0.02 0.00 0.01 0.02 0.02 0.04 0.04 0.03 0.04 0.03 0.02 0.03 0.03 0.02 0.01 0.03 0.03 0.05 0.09 0.06 0.07 0.10 0.10
0.02 0.05 0.04 0.05 0.15 0.20 0.19 0.11 0.11 0.10 0.09 0.07 0.07 0.07 0.17 0.35 0.39 0.39 0.30 0.30 0.23 0.12 0.08 0.08 0.08 0.05 0.03 0.03 0.03 0.02 0.05 0.04 0.02 0.01 0.01 0.02 0.03 0.03 0.04 0.03 0.03 0.04 0.04 0.03 0.03 0.04 0.04 0.02 0.06 0.07 0.04 0.04 0.06 0.07
0.03 0.04 0.02 0.08 0.22 0.19 0.21 0.19 0.14 0.17 0.13 0.10 0.11 0.08 0.12 0.11 0.13 0.19 0.21 0.25 0.22 0.13 0.10 0.08 0.09 0.12 0.06 0.04 0.02 0.02 0.02 0.02 0.01 0.01 0.02 0.03 0.03 0.03 0.02 0.02 0.02 0.03 0.04 0.03 0.03 0.05 0.04 0.04 0.05 0.05 0.06 0.06 0.06 0.06
0.03 0.02 0.01 0.02 0.09 0.13 0.12 0.12 0.08 0.09 0.10 0.11 0.16 0.16 0.15 0.12 0.12 0.18 0.18 0.17 0.28 0.17 0.11 0.08 0.06 0.05 0.06 0.02 0.01 0.01 0.01 0.00 0.00 0.01 0.02 0.03 0.02 0.01 0.01 0.02 0.02 0.02 0.02 0.02 0.03 0.05 0.04 0.04 0.05 0.05 0.04 0.04 0.04 0.04

GFSWCAN_prec_precacc_108.txt.gz
Total_Precipitation_Accumulation
0.95 0.86 0.78 0.70 0.54 0.57 0.72 0.79 0.67 0.69 0.66 0.57 0.68 0.72 0.65 0.73 1.12 1.87 2.72 1.39 2.08 2.20 0.57 0.25 0.27 0.26 0.14 0.22 0.44 0.36 0.64 0.44 0.46 0.46 0.26 0.17 0.29 0.44 0.44 0.35 0.29 0.29 0.47 0.36 0.35 0.42 0.20 0.13 0.28 0.65 0.98 1.02 1.04 1.17
1.12 0.87 0.81 0.70 0.55 0.61 0.71 0.72 0.60 0.65 0.62 0.55 0.53 0.59 0.66 0.73 1.18 1.61 2.41 1.46 1.43 2.16 1.24 0.36 0.24 0.20 0.14 0.15 0.45 0.59 0.54 0.64 0.70 0.62 0.41 0.33 0.35 0.30 0.40 0.50 0.27 0.35 0.29 0.31 0.31 0.37 0.41 0.20 0.35 0.64 0.71 0.78 0.79 0.84
1.37 0.97 0.83 0.69 0.62 0.70 0.71 0.63 0.52 0.54 0.57 0.57 0.56 0.52 0.61 0.82 1.19 1.67 1.78 1.42 2.22 3.10 1.51 0.69 0.32 0.14 0.17 0.08 0.20 0.48 0.40 0.45 0.56 0.53 0.62 0.43 0.50 0.36 0.56 0.47 0.47 0.61 0.28 0.46 0.57 0.74 0.31 0.20 0.26 0.33 0.42 0.59 0.53 0.51
1.26 0.99 0.64 0.58 0.56 0.62 0.58 0.47 0.45 0.51 0.54 0.59 0.56 0.69 0.72 1.05 1.20 1.72 1.50 1.72 2.26 2.17 1.60 0.76 0.48 0.28 0.18 0.22 0.18 0.22 0.25 0.36 0.45 0.57 0.63 0.62 0.63 0.55 0.86 0.53 0.51 0.92 0.48 0.56 0.86 1.50 0.75 0.63 0.72 0.67 0.48 0.48 0.40 0.42
0.94 0.73 0.56 0.50 0.50 0.54 0.54 0.55 0.55 0.54 0.63 0.63 0.61 0.79 1.18 1.26 1.55 2.00 1.46 1.66 1.93 2.00 1.68 0.90 0.42 0.33 0.22 0.18 0.17 0.20 0.25 0.36 0.49 0.63 0.55 0.38 0.39 0.64 1.06 0.58 0.58 0.69 0.91 0.88 1.03 1.27 1.08 0.93 0.68 0.52 0.37 0.33 0.26 0.19
0.78 0.64 0.51 0.50 0.45 0.46 0.43 0.50 0.59 0.66 0.58 0.65 0.76 0.94 1.17 1.46 2.46 3.44 4.27 2.76 1.58 1.62 1.88 1.42 0.55 0.24 0.28 0.28 0.33 0.23 0.32 0.46 0.56 0.50 0.40 0.42 0.38 0.85 1.24 0.78 0.72 0.79 1.08 0.95 0.88 0.90 0.73 0.61 0.43 0.32 0.24 0.24 0.19 0.12
0.75 0.64 0.50 0.44 0.38 0.34 0.38 0.44 0.47 0.55 0.75 0.82 0.88 0.86 1.24 2.19 2.54 1.98 1.88 1.56 0.97 1.38 1.96 1.44 0.98 0.46 0.38 0.51 0.92 0.70 0.61 0.73 0.82 0.69 0.42 0.30 0.43 0.82 1.11 0.94 0.76 0.78 0.84 0.67 0.55 0.42 0.39 0.39 0.29 0.19 0.14 0.14 0.10 0.07
0.66 0.51 0.42 0.38 0.36 0.37 0.40 0.47 0.51 0.61 0.74 0.74 0.88 1.15 1.85 2.50 2.14 1.71 0.83 0.69 0.69 1.23 1.35 1.39 1.28 1.18 0.69 0.72 1.03 1.04 0.91 1.04 1.16 0.90 0.52 0.35 0.65 0.92 1.22 0.77 0.45 0.37 0.40 0.29 0.21 0.10 0.11 0.09 0.07 0.05 0.05 0.07 0.12 0.15
0.52 0.42 0.37 0.36 0.42 0.51 0.55 0.52 0.55 0.70 0.83 1.19 1.83 2.79 4.22 3.74 2.83 1.65 0.95 0.98 0.99 1.21 1.13 0.73 1.11 1.59 1.15 0.83 1.08 1.05 1.08 1.20 0.73 0.67 0.63 0.67 0.60 0.98 1.00 0.43 0.31 0.18 0.15 0.14 0.06 0.01 0.00 0.00 0.01 0.02 0.03 0.04 0.08 0.17
0.46 0.42 0.42 0.43 0.48 0.49 0.51 0.57 0.74 1.01 1.48 2.21 2.92 3.58 4.30 2.66 1.71 1.86 3.04 2.87 2.12 1.22 0.72 0.54 0.74 1.22 1.44 1.24 1.02 1.30 1.08 0.88 0.69 0.49 0.52 0.73 0.74 0.39 0.20 0.19 0.14 0.10 0.11 0.07 0.04 0.03 0.03 0.04 0.07 0.10 0.15 0.15 0.16 0.17
0.50 0.45 0.47 0.47 0.53 0.69 0.84 0.88 1.01 1.35 1.82 2.36 2.69 2.95 2.60 2.13 2.10 2.44 2.29 1.89 1.24 0.69 0.31 0.25 0.57 1.13 1.34 1.37 1.09 0.93 1.40 1.18 0.66 0.56 0.61 0.71 0.54 0.33 0.16 0.10 0.07 0.08 0.05 0.05 0.05 0.07 0.08 0.12 0.18 0.22 0.22 0.20 0.16 0.14
0.42 0.41 0.43 0.48 0.60 0.81 0.87 0.94 0.96 1.27 1.54 1.37 1.64 2.13 2.79 2.61 2.06 1.54 1.17 0.95 0.53 0.40 0.36 0.25 0.37 0.56 1.25 1.48 1.20 0.79 1.02 1.24 1.41 0.87 0.82 0.75 0.45 0.19 0.11 0.11 0.11 0.11 0.10 0.10 0.12 0.17 0.23 0.26 0.27 0.22 0.17 0.16 0.19 0.22
0.41 0.49 0.63 0.70 0.67 0.75 0.93 1.06 1.18 1.23 1.38 1.62 1.41 1.83 1.85 1.56 1.41 1.12 0.89 0.66 0.54 0.26 0.28 0.33 0.41 0.59 0.94 1.36 1.35 1.00 1.17 1.14 1.12 1.31 0.76 0.57 0.31 0.23 0.33 0.37 0.38 0.31 0.30 0.32 0.35 0.33 0.27 0.25 0.24 0.25 0.33 0.45 0.46 0.54
0.42 0.51 0.48 0.58 0.79 1.04 1.19 1.35 1.65 1.81 1.79 1.52 1.23 1.23 1.05 1.01 0.72 0.70 0.72 0.69 0.48 0.35 0.31 0.32 0.51 0.84 0.81 0.99 1.41 1.31 1.39 1.04 1.04 0.84 0.58 0.54 0.56 0.70 0.61 0.48 0.42 0.50 0.50 0.52 0.59 0.59 0.59 0.61 0.74 0.83 0.88 0.95 0.79 0.86
0.46 0.37 0.53 0.91 1.04 1.04 1.07 1.24 1.56 1.29 1.24 1.09 0.72 0.60 0.63 0.79 0.62 0.69 0.66 0.51 0.51 0.60 0.67 0.76 1.05 0.97 0.74 1.04 0.99 0.95 0.88 0.71 0.61 0.67 0.77 0.91 0.87 0.82 0.67 0.61 0.61 0.65 0.67 0.68 0.74 0.71 0.80 0.81 0.66 0.78 0.85 0.78 0.62 0.63
0.25 0.46 0.66 0.68 0.56 0.69 0.92 1.45 1.58 0.86 0.77 0.65 0.74 0.78 0.68 0.72 0.78 0.75 0.68 0.62 0.72 0.91 0.87 0.89 0.97 0.94 0.97 0.79 0.61 0.57 0.56 0.67 0.87 0.75 0.90 0.93 0.84 0.87 0.85 0.79 0.81 0.84 0.79 0.79 0.81 0.74 0.68 0.61 0.52 0.56 0.54 0.50 0.51 0.41
0.27 0.43 0.68 0.57 0.62 0.74 1.09 1.35 1.14 1.01 0.74 0.64 0.95 1.04 0.92 0.78 0.89 0.95 0.92 0.84 0.79 0.68 0.60 0.56 0.58 0.63 0.65 0.46 0.53 0.55 0.78 0.85 0.86 0.91 0.92 0.92 0.94 0.99 1.00 0.90 0.83 0.70 0.65 0.67 0.66 0.63 0.61 0.61 0.44 0.28 0.32 0.41 0.28 0.23
0.32 0.43 0.53 0.54 0.60 0.85 0.94 0.79 0.74 0.54 0.47 0.73 0.78 1.04 0.73 0.84 0.83 0.79 0.81 0.66 0.54 0.44 0.43 0.54 0.47 0.48 0.65 0.80 0.84 0.84 0.94 1.01 1.04 1.00 0.97 1.00 0.95 0.88 0.79 0.67 0.65 0.55 0.51 0.53 0.47 0.44 0.42 0.36 0.26 0.28 0.23 0.20 0.12 0.11
0.64 0.55 0.75 0.79 0.56 0.60 0.70 0.52 0.27 0.35 0.59 0.65 0.68 0.56 0.46 0.60 0.61 0.58 0.42 0.28 0.18 0.15 0.18 0.24 0.34 0.58 0.80 0.88 0.91 0.93 0.92 0.84 0.87 0.85 0.77 0.77 0.76 0.72 0.66 0.56 0.51 0.51 0.43 0.42 0.30 0.25 0.23 0.18 0.18 0.16 0.13 0.09 0.12 0.16
0.94 0.85 0.86 0.66 0.31 0.33 0.25 0.21 0.03 0.13 0.31 0.38 0.35 0.18 0.18 0.30 0.25 0.16 0.10 0.06 0.07 0.06 0.12 0.28 0.63 0.78 0.70 0.75 0.68 0.69 0.69 0.63 0.50 0.39 0.49 0.56 0.58 0.46 0.51 0.44 0.42 0.36 0.25 0.22 0.18 0.16 0.13 0.13 0.15 0.15 0.14 0.13 0.14 0.15
0.85 0.98 0.77 0.37 0.27 0.23 0.19 0.10 0.06 0.06 0.12 0.18 0.13 0.04 0.09 0.06 0.05 0.05 0.03 0.01 0.05 0.13 0.41 0.63 0.63 0.68 0.48 0.46 0.40 0.36 0.43 0.40 0.40 0.30 0.35 0.45 0.48 0.31 0.32 0.35 0.31 0.27 0.23 0.24 0.22 0.23 0.18 0.19 0.18 0.14 0.13 0.10 0.09 0.09
0.63 0.57 0.57 0.27 0.18 0.17 0.11 0.05 0.06 0.03 0.04 0.08 0.09 0.04 0.05 0.08 0.05 0.04 0.02 0.07 0.33 0.57 0.58 0.45 0.39 0.31 0.21 0.25 0.23 0.17 0.23 0.19 0.24 0.35 0.44 0.36 0.38 0.36 0.38 0.42 0.30 0.29 0.28 0.28 0.24 0.22 0.18 0.14 0.10 0.07 0.06 0.06 0.04 0.04
0.30 0.27 0.28 0.16 0.17 0.16 0.14 0.12 0.09 0.03 0.02 0.06 0.04 0.04 0.03 0.03 0.03 0.02 0.06 0.19 0.52 0.61 0.44 0.23 0.18 0.15 0.18 0.28 0.19 0.16 0.14 0.10 0.12 0.18 0.23 0.26 0.28 0.31 0.29 0.30 0.27 0.25 0.21 0.19 0.14 0.11 0.09 0.05 0.01 0.01 0.02 0.03 0.04 0.04
0.23 0.32 0.46 0.26 0.12 0.17 0.13 0.16 0.10 0.08 0.04 0.03 0.03 0.05 0.06 0.04 0.02 0.03 0.10 0.23 0.46 0.34 0.20 0.24 0.18 0.15 0.15 0.15 0.17 0.21 0.26 0.20 0.21 0.23 0.25 0.19 0.18 0.20 0.14 0.12 0.09 0.07 0.06 0.04 0.02 0.01 0.01 0.02 0.02 0.04 0.03 0.02 0.02 0.03
0.41 0.31 0.37 0.31 0.14 0.09 0.06 0.08 0.10 0.06 0.04 0.02 0.04 0.07 0.05 0.03 0.05 0.06 0.09 0.31 0.30 0.29 0.28 0.26 0.20 0.18 0.18 0.21 0.22 0.21 0.17 0.12 0.10 0.11 0.14 0.08 0.08 0.06 0.03 0.01 0.01 0.01 0.00 0.02 0.03 0.03 0.03 0.03 0.02 0.02 0.02 0.03 0.05 0.07
0.54 0.30 0.18 0.16 0.09 0.07 0.05 0.03 0.03 0.04 0.04 0.09 0.12 0.09 0.06 0.08 0.08 0.15 0.24 0.36 0.30 0.31 0.34 0.34 0.27 0.19 0.17 0.15 0.14 0.12 0.08 0.06 0.03 0.03 0.04 0.01 0.01 0.01 0.02 0.02 0.02 0.03 0.01 0.03 0.06 0.05 0.04 0.02 0.02 0.03 0.04 0.05 0.06 0.09
0.30 0.28 0.12 0.10 0.12 0.14 0.20 0.18 0.16 0.16 0.16 0.17 0.15 0.11 0.16 0.19 0.17 0.33 0.45 0.41 0.38 0.39 0.29 0.22 0.14 0.10 0.12 0.11 0.09 0.07 0.03 0.01 0.01 0.01 0.02 0.02 0.02 0.01 0.01 0.03 0.05 0.05 0.02 0.02 0.03 0.04 0.06 0.06 0.05 0.04 0.05 0.06 0.09 0.12
0.12 0.10 0.13 0.16 0.24 0.25 0.22 0.20 0.23 0.28 0.29 0.23 0.17 0.16 0.18 0.16 0.30 0.47 0.48 0.47 0.35 0.22 0.15 0.12 0.11 0.05 0.04 0.05 0.07 0.06 0.05 0.02 0.01 0.01 0.03 0.07 0.04 0.01 0.01 0.02 0.02 0.02 0.01 0.02 0.02 0.03 0.05 0.08 0.08 0.08 0.08 0.09 0.09 0.12
0.09 0.12 0.12 0.14 0.10 0.12 0.16 0.18 0.20 0.22 0.21 0.17 0.13 0.14 0.17 0.26 0.43 0.42 0.43 0.36 0.29 0.16 0.14 0.14 0.23 0.09 0.05 0.05 0.05 0.04 0.02 0.01 0.01 0.02 0.02 0.05 0.08 0.07 0.03 0.02 0.02 0.01 0.02 0.02 0.02 0.03 0.07 0.11 0.12 0.13 0.11 0.11 0.12 0.13
0.03 0.04 0.05 0.04 0.08 0.14 0.22 0.16 0.19 0.16 0.08 0.06 0.07 0.11 0.17 0.44 0.67 0.45 0.32 0.28 0.24 0.20 0.16 0.12 0.12 0.07 0.06 0.06 0.08 0.11 0.11 0.05 0.01 0.01 0.02 0.03 0.04 0.05 0.04 0.04 0.03 0.02 0.03 0.03 0.02 0.01 0.03 0.03 0.05 0.09 0.06 0.07 0.10 0.10
0.03 0.05 0.05 0.05 0.15 0.21 0.20 0.12 0.12 0.11 0.10 0.08 0.07 0.07 0.17 0.35 0.39 0.39 0.31 0.31 0.24 0.13 0.09 0.09 0.10 0.07 0.04 0.04 0.03 0.03 0.07 0.07 0.04 0.03 0.02 0.03 0.04 0.03 0.04 0.03 0.03 0.04 0.04 0.03 0.03 0.04 0.04 0.02 0.06 0.07 0.04 0.04 0.06 0.07
0.08 0.09 0.05 0.10 0.23 0.21 0.25 0.23 0.17 0.19 0.14 0.10 0.12 0.08 0.12 0.11 0.13 0.19 0.22 0.26 0.23 0.14 0.10 0.09 0.09 0.13 0.08 0.07 0.05 0.04 0.04 0.04 0.03 0.02 0.03 0.03 0.03 0.03 0.02 0.02 0.02 0.03 0.04 0.03 0.03 0.05 0.04 0.04 0.05 0.05 0.06 0.06 0.06 0.06
0.07 0.04 0.04 0.06 0.12 0.15 0.14 0.15 0.11 0.11 0.11 0.12 0.16 0.16 0.15 0.12 0.12 0.18 0.18 0.18 0.29 0.17 0.11 0.09 0.07 0.08 0.09 0.05 0.03 0.03 0.03 0.03 0.02 0.02 0.02 0.03 0.02 0.01 0.01 0.02 0.02 0.02 0.02 0.02 0.03 0.05 0.04 0.04 0.05 0.05 0.04 0.04 0.04 0.04

GFSWCAN_prec_precacc_114.txt.gz
Total_Precipitation_Accumulation
1.07 1.01 1.01 1.04 0.90 0.83 0.94 0.99 0.81 0.85 0.82 0.68 0.79 0.76 0.66 0.73 1.12 1.87 2.72 1.39 2.08 2.20 0.57 0.25 0.27 0.26 0.14 0.22 0.44 0.36 0.64 0.44 0.46 0.46 0.26 0.17 0.30 0.44 0.45 0.36 0.32 0.38 0.60 0.46 0.39 0.43 0.20 0.14 0.28 0.66 0.99 1.03 1.04 1.17
1.21 0.98 0.94 0.86 0.69 0.73 0.82 0.80 0.66 0.72 0.68 0.57 0.54 0.59 0.66 0.73 1.18 1.61 2.41 1.46 1.43 2.16 1.24 0.36 0.24 0.20 0.14 0.15 0.45 0.59 0.54 0.64 0.70 0.62 0.41 0.33 0.35 0.30 0.40 0.51 0.28 0.41 0.39 0.36 0.33 0.38 0.42 0.22 0.36 0.65 0.71 0.78 0.79 0.84
1.43 1.03 0.89 0.74 0.66 0.74 0.74 0.64 0.54 0.55 0.58 0.57 0.56 0.52 0.61 0.82 1.19 1.67 1.78 1.42 2.22 3.10 1.51 0.69 0.32 0.14 0.17 0.08 0.20 0.48 0.40 0.45 0.56 0.53 0.62 0.43 0.51 0.37 0.56 0.47 0.47 0.63 0.32 0.48 0.58 0.75 0.32 0.21 0.27 0.33 0.42 0.59 0.53 0.51
1.32 1.04 0.68 0.61 0.57 0.63 0.58 0.48 0.45 0.51 0.54 0.59 0.56 0.69 0.72 1.05 1.20 1.72 1.50 1.72 2.26 2.17 1.60 0.76 0.48 0.28 0.18 0.22 0.18 0.22 0.25 0.36 0.45 0.57 0.63 0.62 0.64 0.55 0.87 0.53 0.51 0.92 0.49 0.57 0.87 1.51 0.76 0.64 0.73 0.67 0.48 0.48 0.40 0.42
0.99 0.76 0.58 0.50 0.50 0.54 0.54 0.55 0.55 0.54 0.63 0.63 0.61 0.79 1.18 1.26 1.55 2.00 1.46 1.66 1.93 2.00 1.68 0.90 0.42 0.33 0.22 0.18 0.17 0.20 0.25 0.36 0.49 0.63 0.55 0.39 0.39 0.64 1.06 0.58 0.58 0.70 0.91 0.88 1.03 1.27 1.08 0.93 0.69 0.53 0.38 0.34 0.26 0.19
0.81 0.66 0.52 0.50 0.45 0.46 0.43 0.50 0.59 0.66 0.58 0.65 0.76 0.94 1.17 1.46 2.46 3.44 4.27 2.76 1.58 1.62 1.88 1.42 0.55 0.24 0.28 0.28 0.33 0.23 0.32 0.46 0.56 0.50 0.40 0.42 0.38 0.85 1.24 0.78 0.72 0.79 1.08 0.95 0.88 0.90 0.73 0.61 0.44 0.33 0.24 0.24 0.19 0.12
0.77 0.65 0.51 0.45 0.38 0.34 0.38 0.44 0.47 0.55 0.75 0.82 0.88 0.86 1.24 2.19 2.54 1.98 1.88 1.56 0.97 1.38 1.96 1.44 0.98 0.46 0.38 0.51 0.92 0.70 0.61 0.73 0.82 0.69 0.42 0.31 0.43 0.82 1.11 0.94 0.76 0.78 0.84 0.67 0.55 0.42 0.40 0.39 0.29 0.19 0.14 0.14 0.10 0.07
0.67 0.51 0.42 0.39 0.36 0.37 0.41 0.47 0.51 0.61 0.74 0.74 0.88 1.15 1.85 2.50 2.14 1.71 0.83 0.69 0.69 1.23 1.35 1.39 1.28 1.19 0.69 0.72 1.03 1.04 0.91 1.04 1.16 0.90 0.52 0.36 0.65 0.92 1.22 0.77 0.45 0.38 0.40 0.29 0.21 0.10 0.11 0.09 0.07 0.05 0.05 0.07 0.12 0.15
0.52 0.42 0.37 0.37 0.42 0.51 0.56 0.52 0.55 0.70 0.83 1.19 1.83 2.79 4.22 3.74 2.83 1.65 0.95 0.98 0.99 1.21 1.13 0.73 1.11 1.60 1.15 0.83 1.08 1.05 1.08 1.20 0.73 0.67 0.63 0.67 0.60 0.98 1.00 0.43 0.31 0.18 0.15 0.14 0.06 0.01 0.00 0.00 0.01 0.02 0.03 0.04 0.08 0.17
0.46 0.42 0.43 0.44 0.48 0.50 0.51 0.57 0.74 1.02 1.48 2.21 2.92 3.58 4.30 2.66 1.71 1.86 3.04 2.87 2.12 1.22 0.72 0.54 0.74 1.22 1.44 1.24 1.02 1.30 1.08 0.88 0.70 0.49 0.52 0.73 0.74 0.39 0.20 0.19 0.14 0.10 0.11 0.07 0.04 0.03 0.03 0.04 0.07 0.10 0.15 0.15 0.16 0.17
0.51 0.46 0.48 0.48 0.53 0.69 0.84 0.88 1.02 1.35 1.82 2.36 2.69 2.96 2.60 2.13 2.10 2.44 2.29 1.89 1.24 0.69 0.31 0.25 0.57 1.13 1.34 1.38 1.10 0.93 1.40 1.18 0.66 0.57 0.62 0.71 0.54 0.33 0.16 0.10 0.07 0.08 0.05 0.05 0.05 0.07 0.08 0.12 0.18 0.22 0.22 0.20 0.16 0.14
0.42 0.42 0.44 0.49 0.60 0.81 0.87 0.94 0.96 1.27 1.54 1.37 1.64 2.13 2.79 2.61 2.06 1.54 1.17 0.95 0.53 0.40 0.36 0.25 0.37 0.56 1.25 1.48 1.21 0.79 1.02 1.24 1.41 0.90 0.85 0.76 0.45 0.19 0.11 0.11 0.11 0.11 0.10 0.10 0.12 0.17 0.23 0.26 0.27 0.22 0.17 0.16 0.19 0.22
0.42 0.50 0.64 0.71 0.67 0.75 0.93 1.06 1.18 1.23 1.38 1.62 1.41 1.83 1.85 1.56 1.41 1.12 0.89 0.66 0.54 0.26 0.28 0.33 0.41 0.59 0.94 1.36 1.35 1.00 1.17 1.14 1.13 1.32 0.77 0.57 0.32 0.25 0.34 0.38 0.38 0.31 0.30 0.32 0.35 0.33 0.27 0.25 0.24 0.25 0.33 0.45 0.46 0.54
0.42 0.52 0.49 0.59 0.80 1.04 1.19 1.35 1.65 1.81 1.79 1.52 1.23 1.23 1.05 1.02 0.72 0.70 0.72 0.69 0.48 0.35 0.31 0.32 0.51 0.84 0.81 0.99 1.41 1.31 1.39 1.04 1.04 0.84 0.58 0.54 0.56 0.73 0.67 0.53 0.44 0.50 0.50 0.52 0.59 0.59 0.59 0.61 0.74 0.83 0.88 0.95 0.79 0.86
0.46 0.38 0.54 0.92 1.04 1.04 1.07 1.24 1.56 1.29 1.24 1.09 0.72 0.60 0.63 0.79 0.63 0.69 0.67 0.52 0.51 0.60 0.67 0.76 1.05 0.97 0.74 1.04 0.99 0.95 0.88 0.71 0.61 0.67 0.77 0.91 0.87 0.83 0.69 0.65 0.64 0.66 0.67 0.68 0.74 0.71 0.80 0.81 0.66 0.78 0.85 0.78 0.62 0.63
0.26 0.47 0.68 0.70 0.57 0.69 0.92 1.45 1.58 0.86 0.77 0.65 0.75 0.80 0.69 0.73 0.80 0.77 0.68 0.62 0.72 0.91 0.87 0.89 0.97 0.94 0.97 0.79 0.61 0.57 0.56 0.67 0.87 0.75 0.90 0.93 0.84 0.88 0.86 0.81 0.84 0.87 0.79 0.79 0.81 0.74 0.68 0.61 0.52 0.56 0.54 0.50 0.51 0.41
0.27 0.45 0.71 0.58 0.62 0.74 1.09 1.35 1.14 1.01 0.74 0.65 0.97 1.06 0.93 0.79 0.92 0.96 0.93 0.84 0.79 0.68 0.60 0.56 0.58 0.63 0.66 0.46 0.53 0.55 0.78 0.85 0.86 0.91 0.92 0.92 0.94 0.99 1.01 0.92 0.84 0.71 0.65 0.67 0.66 0.63 0.61 0.61 0.44 0.28 0.32 0.41 0.28 0.23
0.33 0.45 0.54 0.54 0.60 0.85 0.94 0.79 0.74 0.54 0.47 0.74 0.80 1.07 0.74 0.84 0.84 0.79 0.81 0.66 0.54 0.44 0.43 0.54 0.47 0.48 0.65 0.80 0.84 0.84 0.94 1.01 1.04 1.00 0.97 1.00 0.95 0.88 0.79 0.68 0.66 0.55 0.51 0.53 0.47 0.44 0.42 0.36 0.26 0.28 0.23 0.20 0.12 0.11
0.64 0.56 0.75 0.79 0.56 0.60 0.70 0.52 0.27 0.35 0.60 0.66 0.69 0.56 0.46 0.60 0.61 0.58 0.42 0.28 0.18 0.15 0.18 0.24 0.34 0.58 0.80 0.88 0.91 0.93 0.92 0.84 0.88 0.85 0.77 0.77 0.76 0.72 0.66 0.56 0.51 0.51 0.43 0.42 0.30 0.25 0.23 0.18 0.18 0.16 0.13 0.09 0.12 0.16
0.95 0.86 0.86 0.66 0.31 0.33 0.25 0.21 0.03 0.13 0.31 0.39 0.35 0.18 0.18 0.30 0.25 0.16 0.10 0.06 0.07 0.06 0.12 0.28 0.63 0.78 0.70 0.75 0.68 0.69 0.69 0.63 0.50 0.39 0.49 0.56 0.58 0.46 0.51 0.44 0.42 0.36 0.25 0.22 0.18 0.16 0.13 0.13 0.15 0.15 0.14 0.13 0.14 0.15
0.91 1.00 0.77 0.37 0.27 0.23 0.19 0.10 0.06 0.06 0.12 0.18 0.13 0.04 0.09 0.06 0.05 0.05 0.03 0.01 0.05 0.13 0.41 0.63 0.63 0.68 0.48 0.46 0.40 0.36 0.43 0.40 0.40 0.30 0.35 0.45 0.48 0.31 0.32 0.35 0.31 0.27 0.23 0.24 0.22 0.23 0.18 0.19 0.18 0.14 0.13 0.10 0.10 0.10
0.66 0.57 0.57 0.27 0.18 0.17 0.11 0.05 0.07 0.03 0.05 0.09 0.09 0.04 0.05 0.08 0.05 0.04 0.02 0.07 0.33 0.57 0.58 0.45 0.39 0.31 0.21 0.25 0.23 0.17 0.23 0.19 0.24 0.35 0.44 0.36 0.39 0.36 0.38 0.42 0.30 0.29 0.28 0.28 0.24 0.22 0.18 0.14 0.10 0.07 0.06 0.06 0.04 0.04
0.30 0.27 0.28 0.16 0.17 0.16 0.14 0.12 0.10 0.04 0.03 0.07 0.04 0.04 0.04 0.04 0.03 0.02 0.06 0.19 0.52 0.61 0.44 0.23 0.18 0.15 0.18 0.28 0.19 0.16 0.14 0.10 0.12 0.18 0.23 0.26 0.28 0.31 0.29 0.30 0.27 0.25 0.21 0.19 0.14 0.11 0.09 0.05 0.01 0.01 0.02 0.03 0.04 0.04
0.23 0.32 0.46 0.26 0.12 0.17 0.13 0.17 0.11 0.08 0.04 0.03 0.03 0.06 0.06 0.04 0.02 0.03 0.10 0.23 0.46 0.34 0.20 0.24 0.18 0.15 0.15 0.15 0.17 0.21 0.26 0.20 0.21 0.23 0.25 0.19 0.18 0.20 0.14 0.12 0.09 0.07 0.06 0.04 0.02 0.01 0.01 0.02 0.02 0.04 0.03 0.03 0.03 0.04
0.41 0.31 0.37 0.31 0.14 0.09 0.07 0.09 0.12 0.07 0.05 0.03 0.04 0.07 0.05 0.03 0.05 0.06 0.09 0.31 0.30 0.29 0.28 0.26 0.20 0.18 0.18 0.21 0.22 0.21 0.17 0.12 0.10 0.11 0.14 0.08 0.08 0.07 0.04 0.01 0.01 0.01 0.00 0.02 0.03 0.03 0.03 0.03 0.03 0.03 0.03 0.04 0.05 0.07
0.54 0.30 0.18 0.16 0.09 0.07 0.05 0.04 0.04 0.04 0.04 0.09 0.12 0.09 0.06 0.08 0.08 0.15 0.24 0.36 0.30 0.31 0.34 0.34 0.27 0.19 0.17 0.15 0.14 0.12 0.08 0.06 0.03 0.03 0.04 0.01 0.01 0.01 0.02 0.02 0.02 0.04 0.01 0.03 0.06 0.05 0.04 0.04 0.03 0.04 0.05 0.05 0.06 0.09
0.30 0.28 0.12 0.10 0.12 0.14 0.21 0.18 0.17 0.17 0.16 0.17 0.15 0.12 0.16 0.19 0.17 0.33 0.45 0.41 0.39 0.39 0.29 0.22 0.14 0.10 0.12 0.11 0.09 0.08 0.03 0.01 0.01 0.01 0.02 0.02 0.02 0.01 0.01 0.03 0.05 0.05 0.02 0.02 0.03 0.04 0.06 0.07 0.05 0.05 0.05 0.06 0.09 0.12
0.12 0.11 0.13 0.16 0.25 0.27 0.24 0.20 0.23 0.28 0.29 0.23 0.17 0.16 0.18 0.16 0.30 0.47 0.48 0.47 0.36 0.22 0.15 0.13 0.11 0.05 0.04 0.05 0.07 0.07 0.06 0.04 0.02 0.01 0.03 0.07 0.04 0.01 0.01 0.02 0.02 0.02 0.02 0.03 0.03 0.04 0.06 0.09 0.08 0.08 0.08 0.09 0.10 0.12
0.10 0.12 0.12 0.15 0.12 0.14 0.18 0.19 0.21 0.22 0.21 0.17 0.13 0.14 0.17 0.26 0.43 0.42 0.43 0.36 0.30 0.16 0.14 0.15 0.24 0.10 0.06 0.06 0.07 0.06 0.04 0.03 0.01 0.02 0.02 0.05 0.08 0.08 0.04 0.02 0.03 0.02 0.03 0.03 0.03 0.03 0.07 0.11 0.12 0.13 0.11 0.11 0.12 0.13
0.03 0.04 0.05 0.04 0.08 0.14 0.23 0.17 0.20 0.16 0.09 0.08 0.07 0.12 0.17 0.44 0.67 0.46 0.32 0.28 0.24 0.20 0.16 0.12 0.13 0.07 0.07 0.07 0.09 0.13 0.13 0.07 0.01 0.01 0.02 0.03 0.04 0.06 0.06 0.05 0.04 0.03 0.04 0.03 0.02 0.02 0.03 0.03 0.05 0.09 0.06 0.07 0.10 0.10
0.03 0.06 0.05 0.05 0.15 0.21 0.20 0.12 0.12 0.11 0.11 0.10 0.08 0.08 0.17 0.35 0.39 0.39 0.31 0.31 0.24 0.13 0.10 0.10 0.11 0.08 0.05 0.05 0.04 0.03 0.08 0.08 0.05 0.04 0.02 0.03 0.05 0.05 0.06 0.04 0.04 0.04 0.04 0.03 0.03 0.04 0.04 0.02 0.06 0.07 0.04 0.04 0.06 0.07
0.09 0.10 0.06 0.10 0.23 0.22 0.25 0.23 0.18 0.20 0.15 0.10 0.12 0.08 0.13 0.11 0.13 0.19 0.22 0.26 0.24 0.15 0.11 0.09 0.10 0.14 0.10 0.10 0.08 0.06 0.04 0.05 0.03 0.02 0.03 0.04 0.05 0.05 0.03 0.02 0.02 0.03 0.04 0.03 0.03 0.05 0.04 0.04 0.05 0.05 0.06 0.06 0.06 0.06
0.09 0.06 0.07 0.08 0.13 0.16 0.15 0.17 0.14 0.11 0.11 0.12 0.16 0.16 0.16 0.12 0.12 0.18 0.19 0.19 0.30 0.19 0.13 0.10 0.09 0.10 0.12 0.08 0.06 0.06 0.06 0.06 0.05 0.04 0.04 0.05 0.03 0.02 0.01 0.02 0.02 0.02 0.02 0.02 0.03 0.05 0.04 0.04 0.05 0.05 0.04 0.04 0.04 0.04

GFSWCAN_prec_precacc_117.txt.gz
Total_Precipitation_Accumulation
1.18 1.26 1.39 1.35 1.06 0.94 1.03 1.06 0.92 0.99 0.97 0.85 0.96 0.88 0.77 0.80 1.15 1.89 2.74 1.42 2.10 2.22 0.58 0.25 0.27 0.26 0.14 0.22 0.44 0.36 0.64 0.44 0.46 0.47 0.30 0.20 0.32 0.45 0.46 0.36 0.32 0.40 0.63 0.49 0.42 0.47 0.22 0.14 0.28 0.67 0.99 1.03 1.04 1.17
1.30 1.19 1.26 1.15 0.92 0.95 1.00 0.97 0.86 0.96 0.89 0.78 0.71 0.69 0.73 0.77 1.22 1.63 2.43 1.47 1.44 2.17 1.24 0.36 0.24 0.20 0.14 0.15 0.45 0.59 0.54 0.64 0.70 0.64 0.43 0.35 0.36 0.30 0.40 0.51 0.28 0.42 0.40 0.38 0.34 0.40 0.42 0.23 0.36 0.65 0.71 0.78 0.79 0.84
1.51 1.19 1.10 0.97 0.93 0.98 0.97 0.88 0.76 0.76 0.72 0.71 0.66 0.60 0.66 0.86 1.23 1.69 1.79 1.42 2.22 3.10 1.51 0.69 0.32 0.14 0.17 0.08 0.20 0.48 0.40 0.45 0.56 0.53 0.62 0.43 0.51 0.37 0.56 0.48 0.47 0.63 0.33 0.49 0.59 0.75 0.32 0.22 0.27 0.33 0.42 0.59 0.53 0.51
1.37 1.14 0.82 0.79 0.78 0.84 0.76 0.63 0.59 0.61 0.63 0.68 0.61 0.73 0.74 1.06 1.21 1.72 1.50 1.72 2.26 2.17 1.60 0.76 0.48 0.28 0.18 0.22 0.18 0.22 0.25 0.36 0.45 0.57 0.63 0.62 0.64 0.56 0.87 0.53 0.51 0.92 0.50 0.59 0.88 1.52 0.76 0.64 0.73 0.68 0.48 0.48 0.40 0.42
1.01 0.80 0.62 0.54 0.55 0.58 0.57 0.59 0.59 0.57 0.65 0.64 0.61 0.79 1.18 1.26 1.55 2.00 1.46 1.66 1.93 2.00 1.68 0.90 0.42 0.33 0.22 0.18 0.17 0.20 0.25 0.36 0.49 0.63 0.55 0.39 0.39 0.64 1.06 0.58 0.58 0.70 0.92 0.88 1.04 1.27 1.08 0.93 0.70 0.53 0.38 0.34 0.26 0.19
0.82 0.67 0.53 0.50 0.45 0.46 0.43 0.50 0.59 0.66 0.58 0.65 0.76 0.94 1.17 1.46 2.46 3.44 4.27 2.76 1.58 1.62 1.88 1.42 0.55 0.24 0.28 0.28 0.33 0.23 0.32 0.46 0.56 0.51 0.40 0.43 0.39 0.85 1.24 0.78 0.72 0.79 1.08 0.95 0.88 0.90 0.73 0.61 0.44 0.33 0.24 0.24 0.19 0.12
0.77 0.65 0.51 0.45 0.38 0.34 0.38 0.44 0.47 0.55 0.75 0.82 0.88 0.86 1.24 2.19 2.54 1.98 1.88 1.56 0.97 1.38 1.96 1.44 0.98 0.46 0.38 0.51 0.92 0.70 0.61 0.73 0.82 0.69 0.43 0.31 0.43 0.82 1.11 0.94 0.76 0.78 0.84 0.67 0.55 0.42 0.40 0.40 0.30 0.19 0.14 0.14 0.10 0.07
0.67 0.51 0.42 0.39 0.36 0.37 0.41 0.47 0.51 0.61 0.74 0.74 0.88 1.15 1.85 2.50 2.14 1.71 0.83 0.69 0.69 1.23 1.35 1.39 1.29 1.19 0.69 0.72 1.03 1.04 0.91 1.04 1.16 0.90 0.52 0.36 0.66 0.92 1.22 0.77 0.45 0.38 0.40 0.29 0.21 0.10 0.11 0.09 0.07 0.05 0.05 0.07 0.12 0.15
0.52 0.42 0.37 0.37 0.42 0.51 0.56 0.52 0.55 0.70 0.83 1.19 1.83 2.79 4.22 3.74 2.83 1.65 0.95 0.98 0.99 1.21 1.13 0.73 1.11 1.60 1.15 0.83 1.08 1.05 1.08 1.20 0.73 0.67 0.63 0.67 0.61 0.98 1.00 0.43 0.31 0.18 0.15 0.14 0.06 0.01 0.00 0.00 0.01 0.02 0.03 0.04 0.08 0.17
0.46 0.42 0.43 0.44 0.48 0.50 0.51 0.57 0.74 1.02 1.48 2.21 2.92 3.58 4.30 2.66 1.71 1.86 3.04 2.87 2.12 1.22 0.72 0.54 0.74 1.22 1.45 1.24 1.03 1.30 1.08 0.88 0.70 0.50 0.52 0.73 0.74 0.39 0.20 0.19 0.14 0.10 0.11 0.07 0.04 0.03 0.03 0.04 0.07 0.10 0.15 0.15 0.16 0.17
0.51 0.46 0.48 0.48 0.53 0.69 0.84 0.88 1.02 1.35 1.82 2.36 2.69 2.96 2.60 2.13 2.10 2.44 2.29 1.89 1.24 0.69 0.31 0.25 0.58 1.14 1.35 1.38 1.10 0.94 1.40 1.19 0.67 0.58 0.62 0.71 0.54 0.33 0.16 0.10 0.07 0.08 0.05 0.05 0.05 0.07 0.08 0.12 0.18 0.22 0.22 0.20 0.16 0.14
0.42 0.42 0.44 0.49 0.60 0.81 0.87 0.94 0.96 1.27 1.54 1.37 1.64 2.13 2.79 2.61 2.06 1.54 1.17 0.95 0.53 0.40 0.36 0.26 0.37 0.56 1.26 1.48 1.22 0.80 1.02 1.25 1.43 0.91 0.85 0.76 0.46 0.19 0.11 0.11 0.11 0.11 0.10 0.10 0.12 0.17 0.23 0.26 0.27 0.22 0.17 0.16 0.19 0.22
0.42 0.50 0.64 0.71 0.67 0.75 0.93 1.06 1.18 1.23 1.38 1.62 1.41 1.83 1.85 1.56 1.41 1.12 0.89 0.66 0.54 0.26 0.28 0.34 0.41 0.59 0.94 1.36 1.36 1.00 1.17 1.14 1.13 1.32 0.77 0.58 0.32 0.25 0.34 0.38 0.38 0.31 0.30 0.32 0.35 0.33 0.27 0.25 0.24 0.25 0.33 0.45 0.46 0.54
0.42 0.52 0.49 0.59 0.80 1.04 1.19 1.35 1.65 1.81 1.79 1.52 1.23 1.23 1.05 1.02 0.73 0.70 0.72 0.69 0.48 0.36 0.32 0.33 0.51 0.84 0.82 1.00 1.41 1.31 1.39 1.04 1.04 0.84 0.59 0.54 0.56 0.73 0.69 0.53 0.44 0.50 0.50 0.52 0.59 0.59 0.59 0.61 0.74 0.83 0.88 0.95 0.79 0.86
0.46 0.38 0.54 0.92 1.04 1.04 1.07 1.24 1.56 1.29 1.24 1.09 0.72 0.61 0.64 0.81 0.64 0.70 0.67 0.52 0.51 0.60 0.67 0.76 1.05 0.97 0.74 1.04 0.99 0.95 0.88 0.71 0.61 0.69 0.78 0.91 0.87 0.84 0.70 0.66 0.64 0.66 0.67 0.68 0.74 0.71 0.80 0.81 0.66 0.78 0.85 0.78 0.62 0.63
0.26 0.47 0.68 0.70 0.57 0.69 0.92 1.45 1.58 0.86 0.77 0.65 0.76 0.81 0.71 0.76 0.82 0.78 0.69 0.63 0.72 0.91 0.87 0.89 0.97 0.94 0.97 0.79 0.61 0.57 0.56 0.68 0.89 0.76 0.90 0.93 0.84 0.90 0.87 0.82 0.85 0.87 0.79 0.79 0.81 0.74 0.68 0.61 0.52 0.56 0.54 0.50 0.51 0.41
0.27 0.45 0.71 0.58 0.62 0.74 1.09 1.35 1.14 1.01 0.74 0.65 0.98 1.07 0.95 0.82 0.94 0.97 0.93 0.84 0.79 0.69 0.60 0.56 0.58 0.63 0.66 0.46 0.53 0.55 0.79 0.86 0.86 0.91 0.92 0.92 0.94 1.00 1.04 0.94 0.86 0.73 0.67 0.68 0.66 0.63 0.61 0.61 0.44 0.28 0.32 0.41 0.28 0.23
0.33 0.45 0.54 0.54 0.60 0.85 0.94 0.79 0.74 0.54 0.48 0.75 0.82 1.08 0.74 0.85 0.84 0.80 0.82 0.66 0.54 0.45 0.43 0.54 0.47 0.48 0.66 0.81 0.85 0.85 0.95 1.01 1.04 1.00 0.97 1.00 0.95 0.88 0.79 0.70 0.69 0.58 0.53 0.55 0.47 0.44 0.42 0.36 0.26 0.28 0.23 0.20 0.12 0.11
0.64 0.56 0.75 0.79 0.56 0.60 0.70 0.52 0.27 0.35 0.61 0.67 0.70 0.57 0.47 0.60 0.61 0.58 0.42 0.28 0.18 0.15 0.18 0.24 0.34 0.58 0.80 0.89 0.91 0.93 0.92 0.84 0.88 0.85 0.77 0.77 0.76 0.72 0.66 0.56 0.53 0.53 0.44 0.42 0.30 0.25 0.23 0.18 0.18 0.16 0.13 0.09 0.12 0.16
0.95 0.86 0.86 0.66 0.31 0.33 0.25 0.21 0.03 0.13 0.32 0.39 0.36 0.18 0.19 0.30 0.25 0.16 0.10 0.06 0.07 0.06 0.12 0.28 0.63 0.79 0.70 0.76 0.68 0.69 0.69 0.63 0.50 0.39 0.49 0.56 0.58 0.46 0.51 0.44 0.42 0.36 0.26 0.22 0.18 0.16 0.13 0.13 0.15 0.15 0.14 0.13 0.14 0.15
0.91 1.00 0.77 0.37 0.27 0.23 0.19 0.10 0.07 0.06 0.13 0.18 0.13 0.04 0.10 0.06 0.05 0.05 0.03 0.01 0.05 0.13 0.41 0.63 0.63 0.68 0.48 0.46 0.40 0.36 0.43 0.40 0.40 0.30 0.35 0.45 0.48 0.31 0.32 0.35 0.31 0.27 0.23 0.24 0.22 0.23 0.18 0.19 0.18 0.14 0.13 0.10 0.10 0.10
0.66 0.57 0.57 0.27 0.18 0.17 0.11 0.05 0.07 0.04 0.05 0.09 0.09 0.04 0.05 0.08 0.06 0.04 0.02 0.07 0.33 0.57 0.58 0.45 0.39 0.31 0.21 0.25 0.23 0.17 0.23 0.19 0.24 0.35 0.44 0.36 0.39 0.36 0.38 0.42 0.30 0.29 0.28 0.28 0.24 0.22 0.18 0.14 0.10 0.07 0.06 0.07 0.05 0.04
0.30 0.27 0.28 0.16 0.17 0.16 0.15 0.12 0.11 0.04 0.03 0.07 0.05 0.04 0.04 0.04 0.03 0.02 0.06 0.19 0.52 0.61 0.44 0.23 0.18 0.15 0.18 0.28 0.19 0.16 0.14 0.10 0.12 0.18 0.23 0.26 0.28 0.31 0.29 0.30 0.27 0.25 0.22 0.19 0.14 0.11 0.09 0.05 0.01 0.01 0.02 0.03 0.05 0.04
0.23 0.32 0.46 0.26 0.12 0.17 0.13 0.17 0.12 0.09 0.04 0.03 0.03 0.06 0.07 0.04 0.02 0.03 0.10 0.23 0.46 0.34 0.20 0.24 0.18 0.15 0.15 0.15 0.17 0.21 0.26 0.20 0.21 0.23 0.25 0.19 0.18 0.20 0.14 0.12 0.09 0.07 0.06 0.04 0.02 0.01 0.01 0.02 0.03 0.05 0.04 0.04 0.04 0.05
0.41 0.31 0.37 0.31 0.14 0.09 0.07 0.10 0.13 0.07 0.05 0.03 0.04 0.07 0.05 0.03 0.05 0.06 0.09 0.31 0.30 0.29 0.28 0.26 0.20 0.18 0.18 0.21 0.22 0.21 0.17 0.12 0.10 0.11 0.14 0.08 0.08 0.07 0.04 0.01 0.01 0.01 0.01 0.03 0.04 0.03 0.03 0.03 0.04 0.03 0.04 0.06 0.07 0.07
0.54 0.30 0.18 0.16 0.09 0.07 0.05 0.04 0.04 0.04 0.04 0.09 0.12 0.09 0.07 0.08 0.08 0.15 0.24 0.36 0.30 0.31 0.34 0.34 0.27 0.19 0.17 0.15 0.14 0.12 0.08 0.06 0.03 0.03 0.04 0.01 0.01 0.01 0.02 0.02 0.03 0.04 0.02 0.04 0.06 0.06 0.05 0.04 0.04 0.06 0.07 0.06 0.07 0.09
0.30 0.28 0.12 0.10 0.12 0.14 0.21 0.18 0.17 0.17 0.16 0.17 0.15 0.12 0.16 0.20 0.17 0.33 0.45 0.41 0.39 0.39 0.29 0.22 0.14 0.10 0.12 0.11 0.09 0.08 0.03 0.01 0.01 0.01 0.02 0.02 0.02 0.01 0.02 0.03 0.05 0.05 0.02 0.03 0.03 0.04 0.06 0.08 0.07 0.07 0.07 0.07 0.09 0.12
0.12 0.11 0.13 0.16 0.26 0.28 0.24 0.20 0.23 0.28 0.30 0.24 0.18 0.16 0.18 0.16 0.30 0.47 0.48 0.47 0.36 0.22 0.15 0.13 0.11 0.05 0.04 0.05 0.07 0.07 0.06 0.04 0.02 0.01 0.03 0.07 0.04 0.01 0.01 0.02 0.02 0.02 0.02 0.03 0.03 0.05 0.07 0.10 0.09 0.09 0.08 0.10 0.10 0.12
0.10 0.12 0.12 0.15 0.12 0.15 0.19 0.19 0.22 0.22 0.21 0.17 0.14 0.14 0.17 0.26 0.43 0.42 0.43 0.36 0.30 0.16 0.14 0.16 0.24 0.10 0.06 0.06 0.07 0.06 0.04 0.03 0.01 0.02 0.02 0.05 0.09 0.09 0.04 0.02 0.03 0.03 0.04 0.04 0.05 0.05 0.08 0.12 0.12 0.14 0.11 0.11 0.12 0.13
0.03 0.04 0.05 0.04 0.08 0.14 0.23 0.17 0.20 0.16 0.09 0.08 0.07 0.12 0.17 0.44 0.67 0.46 0.32 0.28 0.24 0.20 0.16 0.13 0.14 0.08 0.08 0.08 0.10 0.14 0.14 0.08 0.02 0.02 0.03 0.04 0.05 0.06 0.06 0.06 0.05 0.05 0.05 0.04 0.03 0.03 0.04 0.03 0.05 0.09 0.06 0.07 0.10 0.10
0.03 0.06 0.05 0.05 0.15 0.21 0.21 0.12 0.12 0.11 0.11 0.10 0.09 0.08 0.18 0.35 0.39 0.39 0.31 0.31 0.25 0.13 0.10 0.11 0.11 0.09 0.05 0.06 0.04 0.04 0.09 0.09 0.06 0.04 0.02 0.03 0.05 0.06 0.06 0.05 0.05 0.05 0.04 0.04 0.03 0.04 0.04 0.02 0.06 0.07 0.04 0.04 0.06 0.07
0.09 0.11 0.06 0.10 0.23 0.22 0.25 0.24 0.18 0.20 0.15 0.11 0.12 0.09 0.13 0.11 0.14 0.19 0.22 0.26 0.24 0.15 0.12 0.10 0.11 0.15 0.11 0.11 0.09 0.07 0.05 0.05 0.04 0.02 0.03 0.04 0.06 0.06 0.04 0.03 0.03 0.04 0.04 0.03 0.03 0.05 0.04 0.04 0.05 0.05 0.06 0.06 0.06 0.06
0.09 0.06 0.07 0.08 0.13 0.16 0.15 0.18 0.14 0.12 0.12 0.12 0.17 0.16 0.16 0.12 0.13 0.19 0.19 0.19 0.31 0.20 0.14 0.12 0.10 0.12 0.14 0.10 0.08 0.08 0.07 0.07 0.06 0.04 0.05 0.06 0.04 0.03 0.02 0.02 0.02 0.02 0.02 0.02 0.03 0.05 0.04 0.04 0.05 0.05 0.04 0.04 0.04 0.04

GFSWCAN_prec_precacc_123.txt.gz
Total_Precipitation_Accumulation
1.56 1.68 1.56 1.42 1.11 0.98 1.16 1.31 1.09 1.11 1.03 0.88 0.98 0.92 0.81 0.87 1.24 2.07 2.90 1.52 2.21 2.33 0.64 0.34 0.30 0.27 0.15 0.22 0.44 0.37 0.65 0.44 0.46 0.47 0.30 0.22 0.36 0.51 0.55 0.46 0.34 0.42 0.67 0.54 0.44 0.53 0.27 0.14 0.28 0.67 1.00 1.03 1.04 1.18
1.71 1.47 1.36 1.20 0.94 0.99 1.15 1.25 1.03 1.07 0.95 0.82 0.75 0.76 0.79 0.86 1.31 1.83 2.67 1.66 1.56 2.29 1.29 0.42 0.29 0.21 0.15 0.15 0.45 0.59 0.54 0.64 0.70 0.64 0.45 0.41 0.40 0.32 0.43 0.59 0.29 0.43 0.42 0.48 0.41 0.43 0.43 0.23 0.36 0.65 0.71 0.78 0.79 0.84
1.79 1.40 1.24 1.05 0.99 1.06 1.16 1.08 0.91 0.87 0.79 0.77 0.73 0.69 0.73 0.95 1.33 1.88 2.06 1.63 2.40 3.24 1.62 0.77 0.36 0.15 0.17 0.08 0.20 0.48 0.40 0.45 0.56 0.54 0.67 0.49 0.53 0.38 0.57 0.50 0.47 0.63 0.33 0.49 0.59 0.76 0.32 0.22 0.27 0.33 0.42 0.59 0.53 0.51
1.61 1.37 1.02 0.94 0.92 1.01 0.92 0.78 0.72 0.70 0.71 0.77 0.72 0.84 0.85 1.18 1.37 1.90 1.74 1.90 2.35 2.27 1.77 0.85 0.51 0.29 0.18 0.22 0.18 0.22 0.25 0.36 0.45 0.58 0.64 0.63 0.64 0.56 0.87 0.55 0.53 0.92 0.50 0.59 0.89 1.52 0.76 0.65 0.74 0.68 0.48 0.48 0.40 0.42
1.24 1.01 0.82 0.73 0.73 0.75 0.77 0.80 0.75 0.69 0.80 0.79 0.74 0.92 1.31 1.41 1.72 2.17 1.61 1.82 1.94 2.03 1.75 0.95 0.44 0.34 0.22 0.18 0.17 0.20 0.25 0.36 0.50 0.64 0.56 0.39 0.39 0.65 1.06 0.58 0.59 0.70 0.92 0.88 1.04 1.27 1.09 0.94 0.70 0.53 0.38 0.34 0.26 0.19
0.97 0.82 0.69 0.67 0.62 0.63 0.61 0.66 0.72 0.78 0.71 0.77 0.88 1.05 1.28 1.57 2.60 3.60 4.48 2.88 1.63 1.63 1.89 1.47 0.59 0.24 0.28 0.28 0.33 0.23 0.32 0.46 0.57 0.54 0.41 0.43 0.39 0.85 1.24 0.79 0.72 0.79 1.08 0.95 0.88 0.90 0.73 0.61 0.44 0.33 0.24 0.24 0.19 0.12
0.83 0.75 0.62 0.57 0.49 0.45 0.48 0.54 0.56 0.64 0.86 0.94 0.98 0.93 1.31 2.26 2.61 2.04 1.94 1.62 0.98 1.38 1.97 1.47 1.01 0.47 0.38 0.51 0.92 0.70 0.62 0.74 0.83 0.70 0.43 0.31 0.43 0.82 1.12 0.94 0.76 0.79 0.85 0.67 0.55 0.42 0.41 0.40 0.30 0.19 0.14 0.14 0.10 0.07
0.68 0.54 0.48 0.46 0.43 0.44 0.47 0.52 0.57 0.67 0.82 0.83 0.94 1.21 1.92 2.55 2.16 1.72 0.83 0.69 0.69 1.23 1.36 1.39 1.30 1.19 0.69 0.72 1.03 1.04 0.91 1.04 1.16 0.90 0.52 0.36 0.66 0.92 1.22 0.77 0.45 0.38 0.40 0.29 0.21 0.10 0.11 0.09 0.07 0.06 0.05 0.07 0.12 0.15
0.52 0.42 0.39 0.40 0.48 0.57 0.62 0.58 0.61 0.75 0.90 1.26 1.92 2.88 4.27 3.75 2.85 1.65 0.95 0.98 1.00 1.21 1.13 0.73 1.12 1.60 1.15 0.83 1.08 1.05 1.08 1.20 0.73 0.67 0.64 0.68 0.61 0.98 1.00 0.43 0.31 0.18 0.15 0.14 0.06 0.01 0.00 0.00 0.01 0.02 0.03 0.04 0.08 0.17
0.46 0.42 0.43 0.44 0.50 0.53 0.56 0.63 0.80 1.07 1.53 2.24 2.95 3.59 4.33 2.67 1.71 1.86 3.04 2.87 2.12 1.22 0.72 0.54 0.74 1.22 1.45 1.25 1.03 1.30 1.08 0.88 0.70 0.50 0.52 0.73 0.74 0.39 0.20 0.19 0.14 0.10 0.11 0.07 0.04 0.03 0.03 0.04 0.07 0.11 0.15 0.15 0.16 0.17
0.51 0.46 0.48 0.48 0.53 0.70 0.85 0.89 1.03 1.36 1.83 2.36 2.69 2.96 2.60 2.13 2.10 2.44 2.30 1.89 1.24 0.69 0.32 0.25 0.58 1.14 1.35 1.39 1.11 0.94 1.41 1.19 0.67 0.59 0.62 0.72 0.55 0.33 0.16 0.10 0.07 0.08 0.05 0.05 0.05 0.07 0.08 0.12 0.18 0.23 0.23 0.20 0.16 0.14
0.42 0.42 0.44 0.49 0.60 0.81 0.87 0.94 0.96 1.27 1.54 1.37 1.64 2.13 2.79 2.61 2.06 1.54 1.17 0.95 0.53 0.41 0.36 0.26 0.37 0.57 1.27 1.49 1.22 0.80 1.02 1.25 1.45 0.92 0.86 0.77 0.47 0.19 0.11 0.11 0.11 0.11 0.10 0.10 0.12 0.17 0.23 0.26 0.27 0.22 0.17 0.16 0.19 0.22
0.42 0.50 0.64 0.71 0.67 0.75 0.93 1.06 1.18 1.23 1.38 1.62 1.41 1.83 1.85 1.56 1.41 1.12 0.89 0.66 0.55 0.27 0.29 0.35 0.42 0.60 0.95 1.37 1.36 1.00 1.17 1.16 1.14 1.33 0.79 0.61 0.32 0.25 0.34 0.38 0.38 0.31 0.30 0.32 0.35 0.33 0.28 0.28 0.26 0.26 0.33 0.45 0.46 0.54
0.42 0.52 0.49 0.59 0.80 1.04 1.19 1.35 1.65 1.81 1.79 1.52 1.23 1.23 1.05 1.02 0.74 0.74 0.74 0.70 0.49 0.37 0.33 0.34 0.52 0.85 0.82 1.00 1.42 1.31 1.40 1.04 1.05 0.85 0.62 0.55 0.56 0.73 0.69 0.54 0.44 0.50 0.50 0.52 0.59 0.59 0.62 0.64 0.77 0.85 0.89 0.95 0.79 0.86
0.46 0.38 0.54 0.92 1.04 1.04 1.07 1.24 1.56 1.29 1.24 1.09 0.72 0.62 0.66 0.83 0.66 0.71 0.68 0.53 0.54 0.62 0.68 0.77 1.05 0.97 0.74 1.04 0.99 0.95 0.88 0.71 0.61 0.72 0.80 0.92 0.87 0.84 0.70 0.67 0.64 0.66 0.67 0.68 0.75 0.73 0.82 0.83 0.69 0.81 0.87 0.78 0.62 0.63
0.26 0.47 0.68 0.70 0.57 0.69 0.92 1.45 1.58 0.86 0.77 0.66 0.77 0.85 0.74 0.79 0.88 0.81 0.70 0.65 0.76 0.93 0.88 0.89 0.97 0.95 0.98 0.79 0.61 0.57 0.56 0.70 0.91 0.76 0.90 0.94 0.85 0.90 0.88 0.82 0.85 0.87 0.79 0.80 0.82 0.77 0.69 0.63 0.55 0.58 0.55 0.51 0.51 0.41
0.27 0.45 0.71 0.58 0.62 0.74 1.09 1.35 1.14 1.01 0.74 0.67 1.04 1.11 0.98 0.87 0.99 0.99 0.95 0.87 0.81 0.70 0.60 0.56 0.58 0.63 0.66 0.46 0.53 0.56 0.80 0.88 0.87 0.91 0.92 0.93 0.95 1.01 1.05 0.94 0.87 0.74 0.67 0.68 0.66 0.63 0.62 0.61 0.45 0.29 0.33 0.41 0.28 0.23
0.33 0.45 0.54 0.54 0.60 0.85 0.94 0.79 0.74 0.54 0.50 0.81 0.88 1.10 0.74 0.86 0.85 0.80 0.83 0.68 0.54 0.45 0.43 0.54 0.47 0.48 0.67 0.83 0.87 0.86 0.95 1.02 1.04 1.00 0.97 1.00 0.95 0.88 0.80 0.71 0.71 0.60 0.55 0.56 0.48 0.44 0.42 0.36 0.26 0.28 0.23 0.20 0.12 0.11
0.64 0.56 0.75 0.79 0.56 0.60 0.70 0.52 0.27 0.37 0.66 0.71 0.75 0.59 0.48 0.61 0.61 0.58 0.42 0.28 0.18 0.16 0.18 0.24 0.35 0.59 0.82 0.90 0.91 0.93 0.93 0.84 0.88 0.86 0.77 0.78 0.77 0.72 0.67 0.57 0.55 0.57 0.47 0.45 0.32 0.25 0.23 0.18 0.18 0.16 0.13 0.09 0.12 0.16
0.95 0.86 0.86 0.66 0.31 0.33 0.25 0.21 0.03 0.14 0.34 0.42 0.38 0.19 0.19 0.31 0.25 0.16 0.11 0.06 0.07 0.06 0.12 0.29 0.65 0.80 0.71 0.76 0.68 0.69 0.69 0.63 0.50 0.39 0.49 0.57 0.59 0.46 0.51 0.45 0.43 0.38 0.29 0.26 0.21 0.17 0.13 0.13 0.15 0.15 0.14 0.13 0.14 0.15
0.91 1.00 0.77 0.37 0.27 0.23 0.19 0.10 0.07 0.07 0.13 0.19 0.14 0.05 0.10 0.07 0.05 0.06 0.03 0.01 0.05 0.13 0.42 0.64 0.63 0.68 0.48 0.46 0.40 0.36 0.43 0.40 0.40 0.30 0.35 0.45 0.48 0.31 0.32 0.35 0.31 0.27 0.23 0.24 0.22 0.24 0.19 0.19 0.18 0.14 0.13 0.10 0.10 0.10
0.66 0.57 0.57 0.27 0.18 0.17 0.11 0.05 0.07 0.04 0.06 0.10 0.09 0.04 0.06 0.09 0.06 0.04 0.02 0.07 0.33 0.57 0.58 0.45 0.39 0.31 0.21 0.25 0.23 0.17 0.23 0.19 0.24 0.35 0.44 0.36 0.39 0.36 0.39 0.42 0.30 0.29 0.28 0.28 0.24 0.22 0.18 0.14 0.10 0.07 0.06 0.08 0.05 0.04
0.30 0.27 0.28 0.16 0.17 0.16 0.15 0.12 0.11 0.04 0.04 0.08 0.05 0.04 0.04 0.04 0.04 0.02 0.07 0.19 0.52 0.61 0.44 0.23 0.18 0.15 0.18 0.28 0.19 0.16 0.14 0.10 0.12 0.18 0.23 0.26 0.28 0.31 0.29 0.30 0.28 0.25 0.22 0.19 0.14 0.11 0.09 0.05 0.01 0.02 0.03 0.05 0.05 0.05
0.23 0.32 0.46 0.26 0.12 0.17 0.13 0.18 0.12 0.09 0.04 0.03 0.03 0.06 0.07 0.04 0.03 0.03 0.10 0.23 0.46 0.34 0.20 0.24 0.18 0.15 0.15 0.15 0.17 0.21 0.26 0.20 0.21 0.23 0.25 0.19 0.18 0.20 0.14 0.12 0.09 0.07 0.06 0.05 0.02 0.01 0.01 0.02 0.03 0.06 0.05 0.05 0.05 0.06
0.41 0.31 0.37 0.31 0.14 0.09 0.07 0.10 0.13 0.07 0.05 0.03 0.04 0.07 0.05 0.03 0.05 0.06 0.09 0.31 0.30 0.29 0.29 0.26 0.20 0.18 0.18 0.21 0.22 0.21 0.17 0.12 0.10 0.11 0.14 0.08 0.08 0.07 0.04 0.02 0.02 0.03 0.02 0.04 0.05 0.05 0.04 0.04 0.06 0.06 0.07 0.07 0.08 0.10
0.54 0.30 0.18 0.16 0.09 0.07 0.06 0.05 0.04 0.04 0.04 0.09 0.12 0.10 0.07 0.08 0.08 0.15 0.24 0.37 0.30 0.32 0.35 0.34 0.27 0.19 0.17 0.15 0.14 0.12 0.08 0.06 0.03 0.03 0.04 0.01 0.01 0.01 0.03 0.03 0.04 0.06 0.04 0.06 0.08 0.08 0.08 0.08 0.08 0.09 0.12 0.11 0.10 0.11
0.30 0.28 0.12 0.10 0.13 0.14 0.21 0.19 0.17 0.17 0.16 0.17 0.15 0.12 0.16 0.20 0.18 0.34 0.45 0.41 0.39 0.39 0.29 0.23 0.15 0.10 0.12 0.11 0.09 0.08 0.03 0.01 0.01 0.01 0.02 0.02 0.02 0.03 0.03 0.05 0.06 0.05 0.03 0.06 0.07 0.07 0.09 0.11 0.11 0.12 0.12 0.11 0.11 0.13
0.12 0.11 0.14 0.17 0.26 0.28 0.25 0.20 0.24 0.28 0.31 0.26 0.19 0.17 0.19 0.17 0.34 0.47 0.48 0.47 0.36 0.23 0.15 0.13 0.11 0.05 0.04 0.05 0.07 0.07 0.06 0.04 0.02 0.01 0.03 0.07 0.05 0.02 0.02 0.03 0.02 0.02 0.03 0.06 0.07 0.08 0.11 0.14 0.13 0.12 0.11 0.12 0.13 0.14
0.10 0.12 0.12 0.15 0.13 0.15 0.19 0.21 0.26 0.24 0.22 0.18 0.16 0.19 0.19 0.27 0.43 0.42 0.43 0.36 0.30 0.16 0.14 0.16 0.24 0.10 0.06 0.06 0.07 0.07 0.04 0.04 0.02 0.03 0.04 0.06 0.10 0.11 0.06 0.04 0.05 0.06 0.08 0.09 0.11 0.09 0.11 0.14 0.14 0.16 0.12 0.12 0.13 0.13
0.03 0.04 0.05 0.04 0.08 0.15 0.24 0.18 0.22 0.16 0.09 0.08 0.08 0.12 0.17 0.45 0.68 0.46 0.32 0.29 0.25 0.21 0.17 0.14 0.14 0.09 0.08 0.08 0.11 0.15 0.16 0.10 0.05 0.04 0.05 0.05 0.05 0.08 0.08 0.07 0.06 0.06 0.06 0.04 0.05 0.06 0.06 0.05 0.06 0.10 0.07 0.08 0.11 0.10
0.03 0.06 0.06 0.06 0.15 0.21 0.21 0.12 0.12 0.11 0.11 0.10 0.09 0.08 0.19 0.37 0.41 0.40 0.31 0.32 0.25 0.14 0.10 0.12 0.13 0.10 0.06 0.07 0.06 0.05 0.10 0.11 0.06 0.04 0.02 0.03 0.05 0.07 0.08 0.06 0.06 0.06 0.05 0.05 0.04 0.05 0.06 0.04 0.06 0.07 0.04 0.04 0.06 0.07
0.10 0.12 0.08 0.12 0.26 0.22 0.25 0.24 0.18 0.20 0.15 0.11 0.13 0.10 0.14 0.12 0.16 0.22 0.23 0.27 0.26 0.17 0.15 0.13 0.16 0.21 0.13 0.14 0.13 0.10 0.07 0.07 0.06 0.04 0.04 0.05 0.07 0.07 0.05 0.04 0.05 0.05 0.05 0.04 0.04 0.06 0.05 0.04 0.05 0.05 0.06 0.06 0.06 0.06
0.10 0.07 0.08 0.09 0.14 0.16 0.15 0.18 0.15 0.12 0.13 0.13 0.19 0.18 0.18 0.14 0.16 0.21 0.20 0.20 0.32 0.22 0.16 0.15 0.14 0.16 0.17 0.14 0.11 0.11 0.11 0.12 0.10 0.08 0.07 0.08 0.06 0.05 0.04 0.04 0.04 0.03 0.02 0.02 0.03 0.05 0.04 0.04 0.05 0.05 0.04 0.04 0.04 0.04